Memphis, TN

7:36 PM CST on February 05, 2016 (GMT -0600)
Memphis International

Weather History for KMEM - July, 2014

Change the Weather History Date:

Wednesday, July 30, 2014

  Actual Average Record
Temperature  
Mean Temperature 74 °F 83 °F  
Max Temperature 85 °F 92 °F 104 °F (1986)
Min Temperature 63 °F 74 °F 61 °F (1965)
Degree Days  
Heating Degree Days 0 0  
Month to date heating degree days 0 0  
Since 1 June heating degree days 0 0  
Since 1 July heating degree days 0 0  
Cooling Degree Days 9 18  
Month to date cooling degree days 395 536  
Year to date cooling degree days 1143 1295  
Since 1 June cooling degree days 832 974  
Growing Degree Days 24 (Base 50)    
Moisture  
Dew Point 57 °F    
Average Humidity 62    
Maximum Humidity 84    
Minimum Humidity 40    
Precipitation  
Precipitation T in 0.13 in 2.02 in (2009)
Month to date precipitation 2.55 4.45  
Year to date precipitation 41.91 32.36  
Snow  
Snow 0.00 in 0.00 in - ()
Month to date snowfall 0.0 0.0  
Since 1 June snowfall 0.0 0.0  
Since 1 July snowfall 0.0 0.0  
Snow Depth 0.00 in    
Sea Level Pressure  
Sea Level Pressure 30.09 in    
Wind  
Wind Speed 4 mph (WSW)    
Max Wind Speed 10 mph    
Max Gust Speed 17 mph    
Visibility 10 miles    
Events Rain    
T = Trace of Precipitation, MM = Missing Value Source: NWS Daily Summary

Daily Weather History Graph

Daily Weather History Graph

Search for Another Location

Airport or City:

Trip Planner

Search our weather history database for the weather conditions in past years. The results will help you decide how hot, cold, wet, or windy it might be!

Date:

Astronomy

Jul. 30, 2014 Rise Set
Actual Time 6:07 AM CDT 8:04 PM CDT
Civil Twilight 5:39 AM CDT 8:32 PM CDT
Nautical Twilight 5:05 AM CDT 9:06 PM CDT
Astronomical Twilight 4:29 AM CDT 9:42 PM CDT
Moon 9:29 AM CDT (7/30) 9:58 PM CDT (7/30)
Length of Visible Light 14h 52m
Length of Day
13h 56m
Waxing Crescent, 12% of the Moon is Illuminated
Jul 30
Waxing Crescent
Aug 3
First Quarter
Aug 10
Full
Aug 17
Last Quarter
Aug 25
New

Hourly Weather History & Observations

Time (CDT) Temp. Heat Index Dew Point Humidity Pressure Visibility Wind Dir Wind Speed Gust Speed Precip Events Conditions
12:54 AM 66.9 °F - 55.9 °F 68% 30.10 in 10.0 mi Calm Calm - N/A   Clear
1:54 AM 64.9 °F - 55.9 °F 73% 30.09 in 10.0 mi Calm Calm - N/A   Partly Cloudy
2:54 AM 64.9 °F - 57.0 °F 75% 30.08 in 10.0 mi Calm Calm - N/A   Partly Cloudy
3:54 AM 69.1 °F - 55.0 °F 61% 30.08 in 10.0 mi Calm Calm - N/A   Partly Cloudy
4:54 AM 64.9 °F - 55.9 °F 73% 30.09 in 10.0 mi Calm Calm - N/A   Clear
5:54 AM 64.9 °F - 55.9 °F 73% 30.09 in 10.0 mi Calm Calm - N/A   Scattered Clouds
6:54 AM 63.0 °F - 57.0 °F 81% 30.11 in 10.0 mi SSW 3.5 mph - N/A   Mostly Cloudy
7:54 AM 69.1 °F - 57.9 °F 68% 30.12 in 10.0 mi South 3.5 mph - N/A   Scattered Clouds
8:54 AM 73.0 °F - 57.0 °F 57% 30.12 in 10.0 mi South 3.5 mph - N/A   Scattered Clouds
9:54 AM 75.9 °F - 55.0 °F 48% 30.12 in 10.0 mi SSW 4.6 mph - N/A   Scattered Clouds
10:54 AM 79.0 °F - 55.0 °F 44% 30.12 in 10.0 mi South 8.1 mph - N/A   Scattered Clouds
11:54 AM 80.1 °F 80.2 °F 55.9 °F 43% 30.12 in 10.0 mi SSW 5.8 mph - N/A   Scattered Clouds
12:54 PM 82.0 °F 81.6 °F 55.9 °F 41% 30.10 in 10.0 mi Variable 4.6 mph - N/A   Scattered Clouds
1:54 PM 82.9 °F 82.4 °F 57.0 °F 41% 30.09 in 10.0 mi Variable 3.5 mph - N/A   Scattered Clouds
2:54 PM 84.0 °F 83.3 °F 57.0 °F 40% 30.08 in 10.0 mi SW 5.8 mph - N/A   Scattered Clouds
3:54 PM 82.9 °F 82.4 °F 57.0 °F 41% 30.07 in 10.0 mi WNW 4.6 mph - N/A   Scattered Clouds
4:54 PM 82.0 °F 81.7 °F 57.0 °F 42% 30.07 in 10.0 mi WNW 9.2 mph - N/A   Overcast
5:54 PM 80.1 °F 80.4 °F 57.0 °F 45% 30.06 in 10.0 mi WNW 6.9 mph - N/A   Overcast
6:54 PM 79.0 °F - 57.0 °F 47% 30.06 in 10.0 mi NNW 5.8 mph - N/A   Overcast
7:54 PM 79.0 °F - 57.0 °F 47% 30.05 in 10.0 mi WSW 4.6 mph - N/A   Overcast
8:54 PM 77.0 °F - 59.0 °F 54% 30.05 in 10.0 mi West 3.5 mph - N/A   Overcast
9:54 PM 77.0 °F - 60.8 °F 57% 30.07 in 10.0 mi North 4.6 mph - N/A   Overcast
10:54 PM 73.9 °F - 64.0 °F 71% 30.05 in 10.0 mi North 9.2 mph - 0.00 in   Overcast
11:54 PM 72.0 °F - 64.0 °F 76% 30.06 in 10.0 mi NNW 5.8 mph - 0.00 in Rain Light Rain